• Join FlightAware (Why Join?)
  • Login
  • US Flag 
08:06PM EDT


 

Airport Tracker/Info


-or-


 

Live Flight TrackerFlight Track Log ✈ SWA561 ✈ 15-Apr-2013 ✈ KLAX - KTUS

Flight Track Log - Related Links

Times and Time Zones

All times are in EDT time to prevent confusion due to time zone crossing. See the SWA561 flight status page for this flight to view local times or setup timezone preferences in your user account.

Time Position Orientation Groundspeed Altitude Reporting Facility
EDT Latitude Longitude Course Direction KTS MPH feet Rate Location/Type
10:08PM 33.9333 -118.4667 219° Southwest 177 204 2,200  Level Southern California TRACON
10:09PM 33.8725 -118.5256 219° Southwest 247 284 4,800 2,880 Climbing Los Angeles Center
10:10PM 33.7892 -118.5250 180° South 290 334 8,700 3,480 Climbing Los Angeles Center
10:11PM 33.7044 -118.5025 168° South 338 389 12,000 3,360 Climbing Los Angeles Center
10:12PM 33.6597 -118.3950 117° Southeast 377 434 15,700 3,540 Climbing Los Angeles Center
10:13PM 33.6439 -118.2417 97° East 408 470 19,300 3,120 Climbing Los Angeles Center
10:14PM 33.6444 -118.1025 90° East 421 484 22,200 2,700 Climbing Los Angeles Center
10:15PM 33.6444 -117.9567 90° East 437 503 24,900 2,460 Climbing Los Angeles Center
10:16PM 33.6431 -117.8061 91° East 450 518 27,300 2,100 Climbing Los Angeles Center
10:17PM 33.6436 -117.6506 90° East 465 535 29,300 1,740 Climbing Los Angeles Center
10:18PM 33.6425 -117.4881 90° East 484 557 30,900 1,620 Climbing Los Angeles Center
10:19PM 33.6411 -117.3200 91° East 502 578 32,700 2,160 Climbing Los Angeles Center
10:20PM 33.6403 -117.1206 90° East 501 577 35,400 2,040 Climbing Los Angeles Center
10:21PM 33.6217 -116.9575 98° East 497 572 36,900 1,440 Climbing Los Angeles Center
10:22PM 33.5992 -116.8028 100° East 491 565 38,400 1,020 Climbing Los Angeles Center
10:23PM 33.5767 -116.6403 99° East 492 566 39,000 240 Climbing Los Angeles Center
10:24PM 33.5528 -116.4758 100° East 496 571 39,000 -60 Level Los Angeles Center
10:25PM 33.5306 -116.3114 99° East 497 572 38,900  Descending Los Angeles Center
10:27PM 33.5069 -116.1475 100° East 498 573 39,000  Climbing Los Angeles Center
10:28PM 33.4775 -115.9481 100° East 503 579 39,000  Level Los Angeles Center
10:29PM 33.4528 -115.7847 100° East 499 574 39,000 -60 Level Los Angeles Center
10:30PM 33.4272 -115.6186 100° East 503 579 38,900  Descending Los Angeles Center
10:31PM 33.4039 -115.4564 100° East 498 573 39,000  Climbing Los Angeles Center
10:32PM 33.3778 -115.2939 101° East 496 571 39,000  Level Los Angeles Center
10:33PM 33.3544 -115.1317 100° East 495 570 39,000  Level Los Angeles Center
10:34PM 33.3297 -114.9725 100° East 488 562 39,000  Level Los Angeles Center
10:35PM 33.3058 -114.8097 100° East 496 571 39,000  Level Los Angeles Center
10:36PM 33.2758 -114.6181 101° East 490 564 39,000  Level Los Angeles Center
10:36PM 33.2711 -114.5711 97° East 491 565 39,000  Level Albuquerque Center
10:37PM 33.2464 -114.4108 100° East 491 565 39,000  Level Albuquerque Center
10:38PM 33.2144 -114.2189 101° East 492 566 39,000  Level Albuquerque Center
10:39PM 33.1886 -114.0592 101° East 492 566 39,000  Level Albuquerque Center
10:40PM 33.1631 -113.8978 101° East 495 570 39,000  Level Albuquerque Center
10:41PM 33.1375 -113.7372 101° East 493 567 39,000  Level Albuquerque Center
10:42PM 33.1100 -113.5767 102° East 495 570 39,000  Level Albuquerque Center
10:43PM 33.0836 -113.4175 101° East 491 565 39,000  Level Albuquerque Center
10:44PM 33.0567 -113.2586 101° East 488 562 39,000 -420 Level Albuquerque Center
10:45PM 33.0303 -113.0994 101° East 489 563 38,200 -1,620 Descending Albuquerque Center
10:46PM 33.0039 -112.9442 101° East 481 554 35,800 -2,460 Descending Albuquerque Center
10:47PM 32.9767 -112.7872 102° East 480 552 33,300 -2,220 Descending Albuquerque Center
10:48PM 32.9419 -112.6378 105° East 470 541 31,300 -2,220 Descending Albuquerque Center
10:50PM 32.8806 -112.4753 114° Southeast 448 516 28,800 -2,220 Descending Albuquerque Center
10:51PM 32.8300 -112.3447 115° Southeast 439 505 26,800 -1,800 Descending Albuquerque Center
10:52PM 32.7875 -112.2339 114° Southeast 429 494 25,200 -1,740 Descending Albuquerque Center
10:53PM 32.7411 -112.1136 115° Southeast 412 474 23,300 -1,980 Descending Albuquerque Center
10:54PM 32.6858 -111.9728 115° Southeast 398 458 21,200 -1,920 Descending Albuquerque Center
10:55PM 32.6397 -111.8547 115° Southeast 397 457 19,400 -1,860 Descending Albuquerque Center
10:55PM 32.6197 -111.8083 117° Southeast 393 452 18,700 -1,920 Descending Albuquerque Center
10:56PM 32.5953 -111.7417 114° Southeast 386 444 17,500 -1,980 Descending Albuquerque Center
10:56PM 32.5658 -111.7039 133° Southeast 376 433 16,700 -1,860 Descending Albuquerque Center
10:57PM 32.5306 -111.6500 128° Southeast 368 423 15,600 -1,800 Descending Albuquerque Center
10:57PM 32.5017 -111.6122 132° Southeast 361 415 14,900 -1,920 Descending Albuquerque Center
10:58PM 32.4669 -111.5617 129° Southeast 356 410 13,700 -1,980 Descending Albuquerque Center
10:58PM 32.4381 -111.5256 133° Southeast 352 405 12,900 -1,800 Descending Albuquerque Center
10:59PM 32.4039 -111.4758 129° Southeast 349 402 11,900 -1,680 Descending Albuquerque Center
10:59PM 32.3769 -111.4408 132° Southeast 343 395 11,200 -1,500 Descending Albuquerque Center
11:00PM 32.3425 -111.3931 130° Southeast 340 391 10,400 -1,200 Descending Albuquerque Center
11:00PM 32.3125 -111.3622 139° Southeast 333 383 10,000 -1,020 Descending Albuquerque Center
11:01PM 32.2819 -111.3181 129° Southeast 322 371 9,400 -1,200 Descending Albuquerque Center
11:01PM 32.2578 -111.2886 134° Southeast 306 352 8,800 -1,500 Descending Albuquerque Center
11:02PM 32.2161 -111.2333 132° Southeast 297 342 7,900 -1,320 Descending Albuquerque Center
11:03PM 32.1642 -111.1664 132° Southeast 283 326 6,500 -1,380 Descending Albuquerque Center
11:04PM 32.1164 -111.0975 129° Southeast 277 319 5,100 -780 Descending Albuquerque Center
11:05PM 32.0700 -111.0336 131° Southeast 269 310 5,000 -120 Descending Albuquerque Center
11:06PM 32.0331 -110.9878 134° Southeast 226 260 4,900 -300 Descending Albuquerque Center
11:07PM 32.0044 -110.9436 127° Southeast 210 242 4,500 -660 Descending Albuquerque Center
11:08PM 32.0617 -110.8858 41° Northeast 189 217 3,600 -720 Descending Albuquerque Center
11:09PM 32.0925 -110.9125 324° Northwest 149 171 3,000 -600 Descending Albuquerque Center